This is the latest recevied weather packets stored in our database for station/object N4PWG. If no packets are shown the sender has not sent any weather packets the latest 10 day(s).
| Time | Temp. | Humidity | Pressure | Rain* | Wind** | Luminosity | Snow |
|---|---|---|---|---|---|---|---|
| 1777824679 | 18.89° C | 50% | 1038.6 hPa | 0 mm | - | 558 W/m² | - |
| 1777824377 | 18.89° C | 49% | 1038.8 hPa | 0 mm | - | 599 W/m² | - |
| 1777824073 | 19.44° C | 46% | 1038.9 hPa | 0 mm | - | 622 W/m² | - |
| 1777823769 | 19.44° C | 49% | 1038.6 hPa | 0 mm | - | 631 W/m² | - |
| 1777823466 | 18.89° C | 51% | 1038.9 hPa | 0 mm | - | 642 W/m² | - |
| 1777823164 | 18.89° C | 50% | 1038.9 hPa | 0 mm | - | 639 W/m² | - |
| 1777822861 | 18.89° C | 49% | 1038.7 hPa | 0 mm | - | 609 W/m² | - |
| 1777822559 | 18.33° C | 52% | 1038.9 hPa | 0 mm | - | 594 W/m² | - |
| 1777822256 | 18.33° C | 53% | 1038.9 hPa | 0 mm | - | 592 W/m² | - |
| 1777821953 | 17.78° C | 52% | 1039.1 hPa | 0 mm | - | 575 W/m² | - |
| 1777821652 | 17.78° C | 52% | 1039.1 hPa | 0 mm | - | 578 W/m² | - |
| 1777821349 | 17.22° C | 53% | 1038.7 hPa | 0 mm | - | 559 W/m² | - |
| 1777821046 | 17.78° C | 52% | 1039.1 hPa | 0 mm | - | 539 W/m² | - |
| 1777820742 | 17.78° C | 56% | 1039.1 hPa | 0 mm | - | 534 W/m² | - |
| 1777820438 | 17.22° C | 57% | 1038.9 hPa | 0 mm | - | 518 W/m² | - |
| 1777820136 | 17.22° C | 57% | 1039.2 hPa | 0 mm | - | 508 W/m² | - |
| 1777819833 | 16.67° C | 58% | 1038.9 hPa | 0 mm | - | 487 W/m² | - |
| 1777819531 | 16.67° C | 60% | 1039.1 hPa | 0 mm | - | 480 W/m² | - |
| 1777819228 | 16.67° C | 61% | 1039.3 hPa | 0 mm | - | 458 W/m² | - |
| 1777818925 | 15.56° C | 61% | 1038.9 hPa | 0 mm | - | 423 W/m² | - |
| 1777818621 | 15.56° C | 61% | 1038.8 hPa | 0 mm | - | 435 W/m² | - |
| 1777818319 | 15.56° C | 67% | 1038.9 hPa | 0 mm | - | 421 W/m² | - |
| 1777818015 | 15° C | 69% | 1038.8 hPa | 0 mm | - | 399 W/m² | - |
| 1777817712 | 14.44° C | 67% | 1039.1 hPa | 0 mm | - | 379 W/m² | - |
| 1777817409 | 14.44° C | 72% | 1038.8 hPa | 0 mm | - | 373 W/m² | - |
* Rain latest hour (hover to see other rain measurements)
** Current wind speed in m/s (hover to see current wind gust speed)